Date String (YYYY-MM-DD hh:mm:ss) UTC,Instrument flags,absolute air pressure of the measurement (hPa),sample flow rate (lpm),inlet stack bypass flow (lpm),air temperature of the measurement (°C),ambient temperature measured by the external sensor (°C),aerosol sample conditioner tube jacket temperature (°C),OPC LED temperature (°C),internal box temperature (°C),relative humidity of the measurement (%),span deviation,mass concentration of particles derived from Lorenz-Mie calculation of OPC scattering (μg/m³),mass concentration of particles derived from Lorenz-Mie calculation of OPC scattering (μg/m³),mass concentration of particles derived from Lorenz-Mie calculation of OPC scattering (μg/m³)
DateTimeUTC,F1_M11,P_M11,Q1_M11,Q2_M11,T1_M11,T2_M11,T3_M11,T4_M11,T5_M11,U1_M11,ZSPAN_M11,X0_M11,X2_M11,X1_M11
2024-05-27 01:00:00,SystemResetWarning,0827.5,4.99,000.00,031.5,030.7,000.0,039.8,033.1,011.0,0000.0,0005.26,0002.52,0001.99
2024-05-27 01:01:00,SystemResetWarning,0827.6,4.99,000.00,031.5,030.7,000.0,039.8,033.1,011.3,0000.0,0005.32,0002.50,0001.98
2024-05-27 01:02:00,SystemResetWarning,0827.5,5.01,000.00,031.5,030.7,000.0,039.8,033.1,011.6,0000.0,0006.02,0002.47,0001.97
2024-05-27 01:03:00,SystemResetWarning,0827.6,5.01,000.00,031.5,030.8,000.0,039.8,033.1,011.5,0000.0,0006.09,0002.47,0001.97
2024-05-27 01:04:00,SystemResetWarning,0827.5,5.00,000.00,031.5,030.8,000.0,039.8,033.1,011.4,0000.0,0006.46,0002.47,0001.97
2024-05-27 01:05:00,SystemResetWarning,0827.5,4.99,000.00,031.5,030.8,000.0,039.8,033.2,011.1,0000.0,0007.35,0002.48,0001.98
2024-05-27 01:06:00,SystemResetWarning,0827.5,5.00,000.00,031.5,030.8,000.0,039.8,033.2,010.8,0000.0,0006.73,0002.51,0001.98
2024-05-27 01:07:00,SystemResetWarning,0827.6,5.00,000.00,031.5,030.8,000.0,039.8,033.2,010.6,0000.0,0006.69,0002.49,0001.99
2024-05-27 01:08:00,SystemResetWarning,0827.6,5.00,000.00,031.5,030.8,000.0,039.8,033.2,011.0,0000.0,0006.90,0002.45,0001.97
2024-05-27 01:09:00,SystemResetWarning,0827.7,4.99,000.00,031.5,030.8,000.0,039.9,033.2,011.1,0000.0,0007.59,0002.46,0001.97
2024-05-27 01:10:00,SystemResetWarning,0827.7,5.00,000.00,031.5,030.8,000.0,039.9,033.2,010.7,0000.0,0007.52,0002.41,0001.97
2024-05-27 01:11:00,SystemResetWarning,0827.7,4.99,000.00,031.5,030.8,000.0,039.9,033.2,011.0,0000.0,0007.54,0002.43,0001.98
2024-05-27 01:12:00,SystemResetWarning,0827.7,5.00,000.00,031.5,030.8,000.0,039.9,033.2,011.1,0000.0,0007.55,0002.44,0001.99
2024-05-27 01:13:00,SystemResetWarning,0827.7,5.01,000.00,031.6,030.8,000.0,039.9,033.2,011.2,0000.0,0006.96,0002.43,0002.00
2024-05-27 01:14:00,SystemResetWarning,0827.7,4.99,000.00,031.6,030.8,000.0,039.9,033.2,011.2,0000.0,0006.67,0002.41,0002.01
2024-05-27 01:15:00,SystemResetWarning,0827.7,5.00,000.00,031.6,030.8,000.0,039.9,033.2,011.2,0000.0,0006.58,0002.41,0002.01
2024-05-27 01:16:00,SystemResetWarning,0827.7,4.99,000.00,031.6,030.8,000.0,039.9,033.2,010.8,0000.0,0005.07,0002.40,0002.01
2024-05-27 01:17:00,SystemResetWarning,0827.7,5.00,000.00,031.6,030.8,000.0,039.9,033.2,010.8,0000.0,0004.63,0002.39,0002.02
2024-05-27 01:18:00,SystemResetWarning,0827.7,5.01,000.00,031.6,030.8,000.0,039.9,033.1,010.8,0000.0,0004.72,0002.36,0002.02
2024-05-27 01:19:00,SystemResetWarning,0827.7,5.00,000.00,031.4,029.3,000.0,040.0,032.3,011.0,0000.0,0005.32,0002.37,0002.03
2024-05-27 01:20:00,SystemResetWarning,0827.6,5.01,000.00,030.9,026.6,000.0,039.9,031.1,011.5,0000.0,0006.19,0002.39,0002.05
2024-05-27 01:21:00,SystemResetWarning,0827.6,5.02,000.00,030.4,026.2,000.0,039.8,030.7,011.6,0000.0,0006.14,0002.41,0002.06
2024-05-27 01:22:00,SystemResetWarning,0827.7,5.00,000.00,030.3,026.7,000.0,039.6,030.9,011.9,0000.0,0006.13,0002.42,0002.06
2024-05-27 01:23:00,SystemResetWarning,0827.7,5.00,000.00,030.2,027.2,000.0,039.4,031.2,012.1,0000.0,0006.07,0002.40,0002.06
2024-05-27 01:24:00,SystemResetWarning,0827.7,5.00,000.00,030.2,027.7,000.0,039.3,031.4,012.3,0000.0,0006.18,0002.43,0002.06
2024-05-27 01:25:00,SystemResetWarning,0827.7,4.99,000.00,030.2,028.1,000.0,039.2,031.6,012.3,0000.0,0006.29,0002.48,0002.07
2024-05-27 01:26:00,SystemResetWarning,0827.7,5.00,000.00,030.2,028.4,000.0,039.1,031.7,012.2,0000.0,0007.01,0002.51,0002.07
2024-05-27 01:27:00,SystemResetWarning,0827.8,5.00,000.00,030.3,028.7,000.0,039.0,031.8,012.3,0000.0,0007.15,0002.54,0002.07
2024-05-27 01:28:00,SystemResetWarning,0827.8,5.00,000.00,030.3,028.9,000.0,039.0,031.9,012.4,0000.0,0007.85,0002.60,0002.07
2024-05-27 01:29:00,SystemResetWarning,0827.7,5.00,000.00,030.3,029.1,000.0,039.0,032.0,012.5,0000.0,0007.92,0002.65,0002.06
2024-05-27 01:30:00,SystemResetWarning,0827.7,5.00,000.00,030.4,029.3,000.0,038.9,032.0,012.2,0000.0,0008.42,0002.71,0002.05
2024-05-27 01:31:00,SystemResetWarning,0827.8,5.00,000.00,030.4,029.4,000.0,038.9,032.1,011.9,0000.0,0007.89,0002.78,0002.05
2024-05-27 01:32:00,SystemResetWarning,0827.8,5.01,000.00,030.4,029.5,000.0,038.9,032.1,011.7,0000.0,0007.78,0002.79,0002.05
2024-05-27 01:33:00,SystemResetWarning,0827.8,5.00,000.00,030.5,029.6,000.0,038.9,032.2,011.7,0000.0,0007.82,0002.81,0002.03
2024-05-27 01:34:00,SystemResetWarning,0827.8,5.00,000.00,030.5,029.7,000.0,038.9,032.2,011.9,0000.0,0008.54,0002.87,0002.04
2024-05-27 01:35:00,SystemResetWarning,0827.8,5.00,000.00,030.5,029.7,000.0,038.9,032.2,011.8,0000.0,0008.69,0002.90,0002.04
2024-05-27 01:36:00,SystemResetWarning,0827.8,5.01,000.00,030.6,029.8,000.0,038.9,032.2,011.8,0000.0,0008.65,0002.85,0002.02
2024-05-27 01:37:00,SystemResetWarning,0827.9,5.00,000.00,030.6,029.8,000.0,038.9,032.3,012.0,0000.0,0008.33,0002.80,0002.02
2024-05-27 01:38:00,SystemResetWarning,0828.0,5.00,000.00,030.6,029.9,000.0,038.9,032.4,011.9,0000.0,0008.34,0002.77,0002.02
2024-05-27 01:39:00,SystemResetWarning,0827.7,5.00,000.00,030.6,029.9,000.0,038.9,032.4,011.5,0000.0,0007.97,0002.71,0002.02
2024-05-27 01:40:00,SystemResetWarning,0827.8,5.00,000.00,030.7,029.9,000.0,038.9,032.4,010.9,0000.0,0007.72,0002.67,0002.02
2024-05-27 01:41:00,SystemResetWarning,0827.8,4.99,000.00,030.7,030.0,000.0,039.0,032.4,011.1,0000.0,0007.32,0002.62,0002.01
2024-05-27 01:42:00,SystemResetWarning,0827.8,5.00,000.00,030.7,030.0,000.0,039.0,032.5,011.4,0000.0,0007.40,0002.55,0002.01
2024-05-27 01:43:00,SystemResetWarning,0828.0,5.00,000.00,030.7,030.0,000.0,039.0,032.5,011.3,0000.0,0007.29,0002.54,0002.02
2024-05-27 01:44:00,SystemResetWarning,0828.1,5.01,000.00,030.8,030.0,000.0,039.0,032.5,011.6,0000.0,0007.27,0002.54,0002.04
2024-05-27 01:45:00,SystemResetWarning,0828.0,5.01,000.00,030.8,030.1,000.0,039.0,032.5,011.7,0000.0,0006.43,0002.53,0002.04
2024-05-27 01:46:00,SystemResetWarning,0827.9,5.00,000.00,030.8,030.1,000.0,039.0,032.5,011.3,0000.0,0005.97,0002.52,0002.02
2024-05-27 01:47:00,SystemResetWarning,0828.0,4.99,000.00,030.8,030.1,000.0,039.1,032.5,011.1,0000.0,0005.87,0002.49,0002.01
2024-05-27 01:48:00,SystemResetWarning,0828.1,4.99,000.00,030.8,030.1,000.0,039.1,032.5,010.5,0000.0,0005.92,0002.50,0002.01
2024-05-27 01:49:00,SystemResetWarning,0828.1,5.00,000.00,030.8,030.1,000.0,039.1,032.5,010.5,0000.0,0005.52,0002.47,0001.99
2024-05-27 01:50:00,SystemResetWarning,0828.1,5.00,000.00,030.8,030.1,000.0,039.1,032.5,010.5,0000.0,0005.36,0002.49,0002.01
2024-05-27 01:51:00,SystemResetWarning,0828.1,5.01,000.00,030.8,030.1,000.0,039.1,032.5,010.4,0000.0,0005.32,0002.47,0002.01
2024-05-27 01:52:00,SystemResetWarning,0828.1,5.01,000.00,030.9,030.2,000.0,039.1,032.6,010.6,0000.0,0004.78,0002.48,0002.01
2024-05-27 01:53:00,SystemResetWarning,0828.2,5.00,000.00,030.9,030.2,000.0,039.1,032.6,010.8,0000.0,0003.71,0002.46,0002.00
2024-05-27 01:54:00,SystemResetWarning,0828.2,4.99,000.00,030.9,030.2,000.0,039.2,032.6,011.0,0000.0,0003.73,0002.44,0002.00
2024-05-27 01:55:00,SystemResetWarning,0828.2,4.99,000.00,030.9,030.2,000.0,039.2,032.6,011.4,0000.0,0003.83,0002.48,0002.00
2024-05-27 01:56:00,SystemResetWarning,0828.2,5.00,000.00,030.9,030.2,000.0,039.2,032.6,011.6,0000.0,0003.81,0002.49,0002.00
2024-05-27 01:57:00,SystemResetWarning,0828.2,5.01,000.00,030.9,030.2,000.0,039.2,032.6,011.7,0000.0,0004.31,0002.48,0002.01
2024-05-27 01:58:00,SystemResetWarning,0828.2,5.00,000.00,031.0,030.2,000.0,039.2,032.6,011.5,0000.0,0004.59,0002.56,0002.03
2024-05-27 01:59:00,SystemResetWarning,0828.2,5.00,000.00,031.0,030.2,000.0,039.2,032.7,011.0,0000.0,0004.57,0002.56,0002.05
